Temp
-8 -9 -9 -10 -10 -10 -10 -10 -10 -10 -10 -10 -10 -10 -10 -9 -9 -8 -8 -8 -8 -8 -7 -7 -7 -7 -6 -6 -6 -5 -5 -5 -5 -5 -4 -5 -6 -5 -5 -5 -5 -5
-9 -9 -9 -10 -10 -10 -10 -10 -10 -10 -10 -11 -11 -10 -10 -9 -9 -9 -9 -8 -8 -8 -8 -8 -8 -8 -7 -7 -7 -6 -7 -6 -6 -6 -6 -6 -6 -6 -6 -6 -5 -5
-9 -9 -9 -10 -10 -10 -10 -10 -11 -11 -11 -11 -11 -11 -10 -10 -10 -10 -10 -9 -9 -9 -9 -9 -9 -8 -8 -8 -8 -8 -8 -8 -8 -7 -7 -7 -7 -7 -7 -6 -6 -6
-9 -10 -10 -10 -10 -10 -10 -10 -11 -11 -11 -11 -11 -11 -11 -11 -11 -10 -10 -10 -10 -10 -10 -10 -10 -9 -9 -9 -8 -9 -9 -9 -9 -9 -9 -8 -8 -8 -8 -7 -7 -7
-10 -10 -10 -10 -10 -10 -11 -11 -11 -11 -11 -12 -12 -12 -12 -12 -12 -12 -12 -11 -11 -11 -11 -11 -10 -10 -10 -10 -10 -10 -10 -10 -10 -10 -10 -9 -9 -9 -8 -8 -8 -7
-10 -10 -10 -11 -11 -11 -11 -11 -11 -11 -12 -12 -12 -13 -13 -13 -13 -13 -13 -13 -12 -12 -12 -12 -11 -11 -11 -11 -11 -11 -11 -11 -11 -11 -11 -10 -10 -10 -9 -9 -9 -8
-11 -11 -11 -11 -11 -12 -12 -12 -12 -12 -12 -13 -13 -13 -13 -13 -14 -14 -14 -14 -14 -14 -14 -13 -13 -13 -12 -12 -12 -12 -12 -12 -12 -12 -11 -11 -11 -10 -10 -10 -9 -9
-11 -11 -11 -12 -12 -12 -13 -13 -13 -13 -13 -14 -14 -14 -14 -14 -14 -14 -14 -15 -15 -15 -15 -14 -14 -14 -13 -13 -13 -13 -13 -13 -12 -12 -12 -11 -11 -11 -11 -10 -10 -10
-12 -12 -12 -12 -13 -13 -13 -13 -14 -14 -14 -14 -15 -15 -15 -15 -15 -15 -15 -15 -15 -15 -15 -15 -15 -15 -14 -14 -14 -14 -14 -13 -13 -13 -12 -12 -12 -11 -11 -11 -11 -11
-12 -12 -12 -13 -13 -14 -14 -14 -14 -14 -15 -15 -15 -16 -16 -16 -16 -16 -16 -16 -16 -16 -16 -15 -15 -15 -15 -15 -15 -14 -14 -14 -13 -13 -13 -12 -12 -12 -12 -12 -11 -11
-12 -12 -13 -13 -13 -14 -14 -14 -14 -15 -15 -16 -16 -16 -16 -16 -17 -17 -16 -16 -16 -16 -16 -16 -16 -16 -16 -15 -15 -15 -15 -14 -14 -13 -13 -13 -13 -12 -12 -12 -12 -11
-13 -13 -13 -13 -14 -14 -14 -15 -15 -15 -16 -16 -16 -16 -17 -17 -17 -17 -17 -17 -17 -17 -17 -17 -16 -16 -16 -16 -16 -15 -15 -14 -14 -13 -13 -13 -13 -13 -12 -12 -12 -12
-13 -13 -13 -14 -14 -15 -15 -15 -16 -16 -16 -16 -17 -17 -17 -18 -18 -18 -18 -17 -17 -17 -17 -17 -17 -16 -16 -16 -16 -16 -15 -14 -14 -14 -13 -13 -13 -13 -13 -13 -12 -12
-13 -14 -14 -15 -15 -15 -16 -16 -17 -17 -17 -17 -17 -17 -18 -18 -18 -18 -18 -18 -18 -18 -17 -17 -17 -17 -17 -17 -17 -16 -15 -14 -14 -14 -14 -13 -13 -13 -13 -13 -13 -13
-14 -14 -14 -15 -16 -16 -17 -17 -17 -17 -17 -18 -18 -18 -18 -18 -18 -18 -18 -18 -18 -18 -18 -18 -17 -17 -17 -17 -17 -16 -15 -14 -14 -14 -14 -14 -13 -13 -13 -13 -13 -13
-14 -14 -15 -16 -16 -17 -17 -17 -18 -18 -18 -18 -19 -19 -19 -19 -19 -19 -19 -19 -19 -18 -18 -18 -18 -17 -17 -17 -17 -15 -15 -14 -14 -14 -14 -14 -14 -14 -14 -14 -13 -13
-14 -15 -15 -16 -17 -17 -17 -18 -18 -18 -19 -19 -19 -19 -19 -19 -19 -19 -19 -20 -19 -19 -19 -18 -18 -17 -17 -17 -17 -15 -15 -15 -14 -14 -14 -14 -14 -14 -14 -14 -14 -14
-15 -15 -16 -16 -17 -17 -18 -18 -18 -19 -19 -20 -20 -20 -20 -20 -20 -20 -20 -20 -20 -20 -19 -19 -18 -17 -17 -17 -17 -16 -15 -15 -14 -14 -15 -15 -15 -15 -15 -15 -14 -14
-15 -15 -16 -17 -17 -18 -18 -18 -18 -19 -20 -20 -20 -20 -20 -20 -20 -20 -20 -20 -20 -20 -20 -19 -18 -17 -17 -17 -17 -16 -16 -15 -15 -15 -15 -15 -15 -15 -15 -15 -15 -15
-15 -16 -16 -17 -18 -18 -18 -19 -19 -19 -20 -20 -20 -20 -21 -21 -21 -21 -21 -20 -20 -21 -20 -19 -18 -17 -18 -18 -17 -17 -16 -15 -15 -16 -16 -16 -16 -16 -16 -15 -15 -15
-16 -16 -17 -17 -18 -18 -18 -19 -19 -20 -20 -21 -21 -21 -21 -21 -21 -21 -21 -21 -20 -21 -20 -20 -18 -18 -18 -18 -18 -17 -16 -16 -16 -17 -16 -16 -16 -16 -16 -16 -16 -15
-16 -17 -17 -18 -18 -19 -19 -19 -20 -20 -21 -21 -21 -21 -21 -21 -21 -21 -21 -21 -20 -21 -21 -20 -19 -18 -18 -19 -18 -17 -17 -17 -17 -17 -17 -16 -16 -16 -16 -16 -16 -15
-16 -17 -17 -18 -19 -19 -19 -20 -20 -21 -21 -21 -21 -22 -22 -22 -22 -21 -21 -21 -20 -20 -21 -21 -19 -18 -18 -19 -19 -18 -17 -17 -17 -17 -17 -17 -16 -16 -16 -16 -16 -15
-16 -17 -18 -18 -19 -19 -20 -20 -21 -21 -21 -21 -21 -22 -22 -22 -22 -21 -21 -21 -21 -21 -21 -21 -20 -19 -19 -19 -19 -18 -18 -17 -17 -17 -17 -17 -16 -16 -16 -16 -15 -15
-17 -17 -18 -19 -19 -20 -20 -20 -21 -21 -21 -21 -21 -22 -22 -22 -22 -22 -21 -21 -21 -21 -21 -21 -20 -20 -19 -19 -19 -19 -18 -18 -17 -17 -17 -17 -16 -16 -16 -15 -15 -15
-17 -17 -18 -19 -19 -20 -20 -21 -21 -21 -21 -22 -22 -22 -22 -22 -22 -22 -22 -21 -21 -21 -21 -21 -21 -21 -20 -19 -20 -19 -18 -18 -17 -17 -17 -17 -16 -16 -15 -15 -15 -15
Height
897 897 896 895 894 893 892 890 889 887 886 884 883 881 879 877 875 873 871 869 867 865 863 861 859 857 855 853 852 849 848 846 844 842 840 838 837 835 833 831 829 828
898 897 897 896 895 894 892 891 890 888 887 885 883 882 880 878 876 874 872 870 868 866 864 862 860 858 856 854 852 850 848 847 845 843 841 839 838 836 834 832 830 829
899 898 897 896 895 894 893 892 890 889 887 885 884 882 880 878 876 874 872 870 868 866 864 862 860 858 857 854 852 851 849 847 845 843 842 840 839 837 835 833 831 829
899 898 898 897 896 895 893 892 890 889 887 885 884 882 879 878 876 874 872 870 868 866 864 863 860 858 857 855 853 851 849 848 846 844 842 840 839 837 835 833 832 830
900 899 898 897 896 895 893 892 890 888 887 885 883 882 879 878 876 873 872 870 868 866 864 863 861 859 857 855 853 851 850 848 846 844 842 841 839 837 835 833 831 830
900 899 898 897 896 895 893 892 890 888 887 885 883 881 879 877 876 874 872 870 868 866 864 863 861 859 857 855 853 852 850 848 846 844 843 841 839 837 835 834 832 829
900 899 898 897 895 894 893 891 890 888 886 885 883 881 879 877 875 874 872 870 868 866 865 863 861 859 857 855 853 852 850 848 846 845 843 841 839 837 835 834 832 829
899 898 897 896 895 893 892 890 889 887 885 884 882 881 879 877 875 873 872 870 868 866 865 863 861 859 857 855 854 852 850 848 847 845 843 841 839 837 835 834 831 829
898 898 896 895 894 893 891 890 888 887 885 883 882 880 878 877 875 873 871 869 868 866 864 863 861 859 857 856 854 852 850 849 847 845 843 841 840 837 835 834 831 829
897 897 896 894 894 892 890 889 887 886 884 882 881 879 878 876 874 873 871 869 868 866 864 862 861 859 857 855 854 852 851 849 847 845 843 841 840 837 835 834 831 829
896 896 895 893 893 891 890 888 886 885 884 882 880 879 877 876 874 872 871 869 867 865 864 862 860 859 857 855 854 852 851 849 847 845 843 841 839 837 836 834 831 829
895 895 894 892 892 890 889 887 886 885 883 881 880 878 876 875 873 872 870 868 867 865 863 862 860 858 856 854 853 852 850 849 847 845 843 841 839 837 835 833 831 829
894 894 892 891 890 889 888 886 885 884 882 881 879 877 876 874 873 871 870 868 866 864 863 861 859 857 856 854 853 851 850 848 846 844 842 840 838 836 834 832 830 828
893 892 891 890 889 887 887 885 884 883 881 880 878 876 875 874 872 870 869 867 866 864 862 860 858 857 855 854 852 851 849 848 846 844 841 839 837 835 833 832 829 828
892 891 889 889 887 886 885 884 883 882 880 879 877 876 875 873 871 870 868 866 865 863 861 859 858 856 854 853 852 851 849 847 845 843 841 838 836 834 832 830 828 826
890 889 888 887 886 885 884 883 881 880 879 878 876 875 874 872 870 869 867 866 864 862 860 859 857 855 854 853 852 851 849 846 844 842 840 838 835 833 831 829 827 825
889 888 887 886 885 884 883 881 880 879 878 877 875 874 873 871 870 868 866 865 863 861 859 857 856 854 852 852 851 850 848 846 843 841 839 837 835 832 830 828 826 824
887 886 886 885 884 883 881 880 879 878 877 876 874 873 871 870 869 867 866 864 862 860 859 857 855 853 851 850 849 848 847 845 843 840 838 836 834 832 830 827 825 823
885 885 884 883 882 881 880 879 878 877 876 874 873 872 870 869 868 866 865 863 861 859 857 856 854 852 850 849 848 847 845 844 841 839 837 835 833 831 829 826 824 822
884 883 882 881 880 879 878 877 876 875 874 873 872 870 869 868 866 865 864 862 860 859 856 854 853 850 849 848 847 846 844 842 840 837 836 834 832 830 828 826 824 821
882 881 880 879 879 877 877 876 875 874 873 872 870 869 868 867 865 864 862 861 859 858 855 853 851 849 848 847 845 844 842 840 838 836 834 832 830 829 827 824 823 821
879 879 878 877 876 876 875 874 873 872 871 870 869 867 866 865 864 862 861 859 858 856 854 852 850 848 847 845 844 843 841 839 837 835 833 831 829 827 825 823 821 820
877 876 876 875 875 874 873 872 872 871 869 868 867 866 865 864 862 861 859 858 856 855 853 851 848 847 845 844 843 841 840 838 836 834 832 830 827 826 824 822 820 818
875 874 874 873 872 872 871 870 870 869 868 867 865 864 863 862 861 859 858 856 855 853 852 849 847 845 844 842 841 840 839 837 835 832 830 828 826 824 822 820 818 816
872 872 871 871 870 870 869 868 868 867 866 865 863 862 861 860 859 857 856 855 853 852 850 848 846 844 842 841 839 838 838 836 834 832 829 827 825 822 820 818 816 814
869 869 869 868 868 867 867 866 865 865 863 863 862 861 859 858 857 856 854 853 852 850 849 847 845 843 841 839 838 837 836 835 833 831 828 826 823 821 818 816 814 813
Wind_Speed
25 24 23 23 22 23 24 24 24 24 24 24 24 24 25 26 27 27 27 27 26 26 27 26 26 26 26 25 24 23 23 22 21 21 20 20 17 17 19 19 17 16
23 23 23 22 23 23 24 24 24 24 24 24 24 24 24 25 26 26 26 26 26 25 25 25 26 26 26 25 24 23 22 21 21 20 20 18 16 16 18 17 17 17
21 22 23 22 23 23 24 24 23 23 23 23 24 24 24 25 26 25 25 25 25 25 25 25 25 25 24 25 24 23 22 21 20 20 20 18 16 16 17 16 16 16
20 21 21 22 22 23 23 24 23 23 23 23 23 23 23 24 25 25 24 24 24 24 24 24 24 24 24 24 23 22 21 19 18 19 19 18 16 16 17 16 16 16
18 19 19 20 21 22 23 23 23 23 23 22 23 22 22 23 23 23 23 23 23 23 23 22 22 23 23 23 22 21 20 18 17 18 17 16 16 16 17 17 16 17
16 17 18 19 20 21 22 22 22 23 22 22 22 21 21 22 22 21 22 22 22 21 21 22 22 22 22 22 20 19 18 17 17 17 15 15 16 15 16 17 17 17
14 16 17 18 19 20 21 21 21 21 21 21 21 20 20 21 21 20 21 21 21 20 20 21 21 21 21 20 20 19 18 17 16 16 15 15 15 16 16 15 16 17
14 15 17 18 19 19 21 21 21 21 20 20 20 19 19 20 20 20 20 20 19 19 19 19 19 20 19 19 19 18 18 16 16 16 16 16 16 16 16 15 15 17
13 15 16 17 18 19 20 20 20 20 19 19 19 18 19 19 18 19 19 19 18 17 18 18 18 18 18 18 17 16 17 16 16 16 17 17 16 16 17 17 16 17
13 14 16 17 17 18 20 20 20 19 19 19 18 18 18 18 17 18 18 17 17 17 18 17 17 18 18 17 16 15 15 16 16 17 17 17 17 16 16 17 17 17
13 14 16 17 17 18 19 19 19 19 18 18 18 18 18 16 16 17 17 17 17 17 17 17 17 17 17 17 15 14 15 15 16 17 17 17 17 17 17 17 17 17
13 14 16 17 17 17 18 18 18 18 18 18 17 18 17 16 15 16 16 16 17 17 17 17 17 17 16 16 14 14 15 16 17 17 17 17 17 17 17 17 17 17
12 14 15 16 16 16 16 16 16 17 17 17 17 17 17 16 16 17 16 16 17 16 16 17 17 17 16 14 13 15 16 17 18 18 18 17 17 17 16 15 16 17
12 13 14 15 15 15 15 15 15 16 16 16 16 16 15 16 16 16 16 16 16 16 17 17 17 17 15 13 14 17 18 18 18 18 18 18 18 17 16 15 16 17
12 13 14 14 14 14 14 14 15 15 15 15 15 14 14 15 16 16 16 16 16 17 17 17 17 17 15 14 16 18 19 19 19 18 18 19 18 17 16 16 17 17
12 13 13 14 13 14 14 14 14 15 15 14 13 14 14 15 15 15 15 15 16 18 18 18 18 17 15 16 18 19 19 19 19 18 18 18 17 17 17 17 17 17
11 12 13 13 13 13 13 13 14 14 14 13 12 13 14 14 15 15 14 15 16 17 18 18 18 17 16 17 19 20 20 19 19 19 18 16 15 17 18 18 18 17
11 12 12 12 12 12 13 13 13 13 13 12 12 13 14 14 14 14 14 15 15 17 18 18 19 17 15 16 20 20 20 20 19 19 17 15 15 16 17 18 18 18
11 12 12 11 12 12 12 12 13 12 12 12 12 13 14 14 14 14 14 15 15 17 18 19 19 17 15 17 20 21 20 21 19 17 15 15 16 16 17 17 18 18
11 12 11 11 12 12 12 12 12 12 11 12 12 13 13 13 14 14 15 15 15 16 18 20 19 17 15 18 20 20 21 21 18 15 14 14 16 16 16 17 18 18
11 11 12 12 12 12 12 12 11 11 11 11 12 13 13 13 14 14 15 16 16 17 18 20 20 17 15 18 20 21 21 20 17 15 14 14 15 16 16 17 17 17
11 12 12 12 12 12 12 12 11 11 11 12 13 13 13 13 14 15 16 17 18 18 18 20 20 17 15 17 20 21 21 19 16 15 15 15 15 16 16 17 16 17
11 12 12 12 12 12 12 11 11 11 12 13 13 13 12 13 14 16 17 18 18 18 17 19 20 18 15 17 20 21 20 18 17 16 15 15 16 16 16 17 16 17
12 12 13 13 12 12 12 12 12 12 13 13 14 14 14 14 15 17 18 18 18 18 17 18 20 18 16 17 19 20 19 18 17 16 15 15 16 17 17 17 17 17
13 13 13 13 13 12 13 13 13 13 14 14 14 15 15 16 17 18 18 18 18 18 17 17 18 18 17 17 18 19 19 17 16 15 14 16 17 18 18 18 17 17
13 14 13 13 13 13 13 14 13 14 14 14 14 15 16 17 17 17 18 19 18 18 17 16 16 17 18 17 17 18 18 17 16 14 14 16 18 19 19 18 17 17
Wind_Direction
45 43 40 37 33 29 27 25 22 19 17 14 12 10 9 8 8 8 8 9 8 6 6 5 4 4 4 5 5 6 6 3 2 2 3 4 358 354 357 358 357 354
44 41 39 35 31 28 25 22 19 16 14 11 9 7 6 6 6 6 5 5 4 4 3 3 2 1 1 1 2 4 2 359 358 358 360 359 352 349 352 352 351 351
41 38 35 32 28 25 21 18 16 13 10 8 5 4 3 3 2 3 3 2 1 1 0 360 359 359 359 358 359 360 358 356 354 353 355 354 347 344 347 346 345 347
37 34 31 27 23 21 17 15 12 9 6 5 2 1 0 359 359 359 360 359 359 358 358 357 356 355 356 357 357 356 354 351 349 349 349 346 344 342 342 342 341 341
34 30 27 23 19 16 13 11 8 5 3 1 360 359 357 356 356 355 355 356 356 356 355 354 354 353 352 354 355 353 350 347 345 345 343 339 339 339 338 339 337 336
30 26 23 19 16 13 9 7 4 2 0 358 357 356 355 354 355 353 352 352 353 353 353 352 352 351 351 351 350 349 347 344 342 342 339 335 335 335 335 335 333 332
25 21 18 14 12 10 6 4 2 360 358 357 356 354 352 353 353 351 349 349 350 350 349 350 350 349 349 348 347 345 344 341 340 340 336 332 332 332 333 333 330 328
20 16 13 10 9 6 3 1 359 359 357 356 355 353 351 351 350 349 348 347 347 346 345 346 347 347 346 345 343 342 341 338 337 336 333 332 330 329 330 330 328 326
14 12 9 7 6 1 359 359 357 357 356 355 354 352 351 350 349 348 347 346 344 342 341 342 342 343 343 342 340 338 336 334 333 332 330 328 327 326 327 326 324 324
9 7 6 5 2 358 357 357 355 355 355 354 353 351 350 349 347 346 345 345 343 340 340 339 338 339 340 339 337 334 332 331 329 328 326 324 323 321 322 323 322 321
4 4 2 0 358 356 355 354 354 354 353 353 353 350 350 348 346 346 344 343 341 339 339 337 335 337 337 336 334 331 330 328 326 325 322 320 319 318 318 319 318 317
0 359 357 356 354 352 352 352 353 353 353 353 352 350 351 348 345 345 344 341 338 337 337 335 335 335 333 332 332 330 329 326 324 322 319 317 316 315 315 315 314 313
355 353 352 351 350 349 350 351 352 353 353 353 351 351 351 347 345 346 343 340 338 337 335 334 336 336 332 330 330 330 328 325 323 320 317 316 313 312 312 311 311 310
347 348 348 347 346 347 348 349 350 351 352 351 351 351 350 346 346 345 342 340 339 336 335 336 338 338 335 332 330 328 327 324 322 319 316 314 312 310 310 309 309 309
342 343 343 343 342 343 344 345 348 349 349 350 351 349 347 346 346 345 342 341 338 337 338 339 340 340 337 331 327 326 325 323 321 318 315 313 311 310 309 308 309 309
337 338 338 338 336 337 340 342 344 346 346 347 348 346 345 345 345 345 343 339 337 338 340 339 339 340 337 329 325 324 324 323 320 317 315 312 310 309 309 309 310 309
331 331 332 331 330 332 336 337 340 342 343 342 342 342 343 344 344 343 341 338 336 336 337 336 337 340 336 327 324 325 325 324 320 317 314 310 309 309 309 310 311 311
323 324 325 323 323 327 330 333 336 339 338 336 336 337 340 343 342 339 338 338 336 334 334 334 335 339 337 326 324 326 326 324 320 316 312 309 308 308 307 309 310 311
314 318 317 315 316 321 325 329 332 334 333 331 332 334 337 339 337 335 336 337 334 332 332 334 336 340 337 327 325 326 326 325 321 315 310 307 307 307 306 307 309 309
307 310 308 307 310 315 320 325 326 327 328 327 328 331 332 332 332 332 334 336 334 331 330 332 336 341 338 327 325 326 326 325 321 314 309 305 304 305 305 305 307 308
299 301 300 300 304 310 315 318 320 322 322 321 324 327 327 327 328 330 332 334 335 332 330 331 336 341 336 326 324 326 327 325 321 314 309 305 303 303 302 303 304 305
292 294 294 296 300 305 309 312 313 315 315 316 320 323 324 324 325 327 329 332 335 334 330 329 334 339 335 326 325 326 327 325 320 314 309 306 304 303 303 302 303 303
286 287 288 291 295 299 302 305 306 308 310 314 318 319 319 319 320 324 327 330 333 334 328 324 328 336 336 329 325 326 327 325 318 313 310 306 305 305 303 303 302 302
282 282 283 285 289 292 294 297 300 303 306 310 313 314 315 316 318 322 326 328 329 330 327 323 325 332 335 330 325 325 325 323 318 313 310 307 306 306 305 304 303 302
279 278 278 280 284 287 289 292 296 298 301 306 309 311 312 314 317 320 323 325 326 327 329 327 323 326 331 330 325 323 323 322 317 312 309 308 308 308 307 306 305 305
276 276 276 277 280 283 285 289 292 296 299 303 305 306 308 310 314 315 316 320 322 323 326 326 320 320 326 329 326 321 321 322 318 312 309 309 308 308 308 308 308 308